Year,Month,Day,Hour,Minute,Value (Times are PST for temperature in C)
2014,08,22,00,00,14.60
2014,08,22,00,01,14.60
2014,08,22,00,02,14.60
2014,08,22,00,03,14.60
2014,08,22,00,04,14.60
2014,08,22,00,05,14.60
2014,08,22,00,06,14.60
2014,08,22,00,07,14.60
2014,08,22,00,08,14.60
2014,08,22,00,09,14.60
2014,08,22,00,10,14.60
2014,08,22,00,11,14.60
2014,08,22,00,12,14.60
2014,08,22,00,13,14.60
2014,08,22,00,14,14.60
2014,08,22,00,15,14.60
2014,08,22,00,16,14.60
2014,08,22,00,17,14.60
2014,08,22,00,18,14.60
2014,08,22,00,19,14.60
2014,08,22,00,20,14.50
2014,08,22,00,21,14.50
2014,08,22,00,22,14.50
2014,08,22,00,23,14.50
2014,08,22,00,24,14.50
2014,08,22,00,25,14.60
2014,08,22,00,26,14.60
2014,08,22,00,27,14.60
2014,08,22,00,28,14.50
2014,08,22,00,29,14.60
2014,08,22,00,30,14.60
2014,08,22,00,31,14.60
2014,08,22,00,32,14.60
2014,08,22,00,33,14.60
2014,08,22,00,34,14.60
2014,08,22,00,35,14.60
2014,08,22,00,36,14.60
2014,08,22,00,37,14.60
2014,08,22,00,38,14.70
2014,08,22,00,39,14.70
2014,08,22,00,40,14.70
2014,08,22,00,41,14.70
2014,08,22,00,42,14.80
2014,08,22,00,43,14.80
2014,08,22,00,44,14.80
2014,08,22,00,45,14.80
2014,08,22,00,46,14.80
2014,08,22,00,47,14.90
2014,08,22,00,48,14.90
2014,08,22,00,49,14.90
2014,08,22,00,50,15.00
2014,08,22,00,51,15.00
2014,08,22,00,52,15.10
2014,08,22,00,53,15.10
2014,08,22,00,54,15.10
2014,08,22,00,55,15.20
2014,08,22,00,56,15.20
2014,08,22,00,57,15.20
2014,08,22,00,58,15.20
2014,08,22,00,59,15.30
2014,08,22,01,00,15.30
2014,08,22,01,01,15.30
2014,08,22,01,02,15.40
2014,08,22,01,03,15.40
2014,08,22,01,04,15.40
2014,08,22,01,05,15.40
2014,08,22,01,06,15.50
2014,08,22,01,07,15.50
2014,08,22,01,08,15.50
2014,08,22,01,09,15.50
2014,08,22,01,10,15.50
2014,08,22,01,11,15.50
2014,08,22,01,12,15.50
2014,08,22,01,13,15.50
2014,08,22,01,14,15.60
2014,08,22,01,15,15.60
2014,08,22,01,16,15.60
2014,08,22,01,17,15.60
2014,08,22,01,18,15.70
2014,08,22,01,19,15.70
2014,08,22,01,20,15.70
2014,08,22,01,21,15.70
2014,08,22,01,22,15.70
2014,08,22,01,23,15.70
2014,08,22,01,24,15.80
2014,08,22,01,25,15.80
2014,08,22,01,26,15.80
2014,08,22,01,27,15.80
2014,08,22,01,28,15.90
2014,08,22,01,29,15.90
2014,08,22,01,30,16.00
2014,08,22,01,31,16.00
2014,08,22,01,32,16.00
2014,08,22,01,33,16.00
2014,08,22,01,34,16.00
2014,08,22,01,35,16.10
2014,08,22,01,36,16.10
2014,08,22,01,37,16.10
2014,08,22,01,38,16.10
2014,08,22,01,39,16.20
2014,08,22,01,40,16.20
2014,08,22,01,41,16.20
2014,08,22,01,42,16.20
2014,08,22,01,43,16.20
2014,08,22,01,44,16.20
2014,08,22,01,45,16.20
2014,08,22,01,46,16.20
2014,08,22,01,47,16.20
2014,08,22,01,48,16.20
2014,08,22,01,49,16.20
2014,08,22,01,50,16.20
2014,08,22,01,51,16.20
2014,08,22,01,52,16.20
2014,08,22,01,53,16.20
2014,08,22,01,54,16.20
2014,08,22,01,55,16.20
2014,08,22,01,56,16.10
2014,08,22,01,57,16.10
2014,08,22,01,58,16.10
2014,08,22,01,59,16.10
2014,08,22,02,00,16.00
2014,08,22,02,01,16.00
2014,08,22,02,02,16.00
2014,08,22,02,03,16.00
2014,08,22,02,04,15.90
2014,08,22,02,05,15.90
2014,08,22,02,06,15.90
2014,08,22,02,07,15.90
2014,08,22,02,08,15.90
2014,08,22,02,09,15.80
2014,08,22,02,10,15.80
2014,08,22,02,11,15.80
2014,08,22,02,12,15.80
2014,08,22,02,13,15.70
2014,08,22,02,14,15.70
2014,08,22,02,15,15.70
2014,08,22,02,16,15.70
2014,08,22,02,17,15.70
2014,08,22,02,18,15.60
2014,08,22,02,19,15.60
2014,08,22,02,20,15.60
2014,08,22,02,21,15.60
2014,08,22,02,22,15.50
2014,08,22,02,23,15.50
2014,08,22,02,24,15.40
2014,08,22,02,25,15.40
2014,08,22,02,26,15.40
2014,08,22,02,27,15.40
2014,08,22,02,28,15.30
2014,08,22,02,29,15.30
2014,08,22,02,30,15.30
2014,08,22,02,31,15.30
2014,08,22,02,32,15.30
2014,08,22,02,33,15.30
2014,08,22,02,34,15.30
2014,08,22,02,35,15.30
2014,08,22,02,36,15.30
2014,08,22,02,37,15.30
2014,08,22,02,38,15.30
2014,08,22,02,39,15.40
2014,08,22,02,40,15.40
2014,08,22,02,41,15.40
2014,08,22,02,42,15.50
2014,08,22,02,43,15.50
2014,08,22,02,44,15.50
2014,08,22,02,45,15.60
2014,08,22,02,46,15.60
2014,08,22,02,47,15.60
2014,08,22,02,48,15.60
2014,08,22,02,49,15.60
2014,08,22,02,50,15.60
2014,08,22,02,51,15.60
2014,08,22,02,52,15.60
2014,08,22,02,53,15.70
2014,08,22,02,54,15.70
2014,08,22,02,55,15.70
2014,08,22,02,56,15.70
2014,08,22,02,57,15.70
2014,08,22,02,58,15.70
2014,08,22,02,59,15.70
2014,08,22,03,00,15.70
2014,08,22,03,01,15.70
2014,08,22,03,02,15.70
2014,08,22,03,03,15.70
2014,08,22,03,04,15.70
2014,08,22,03,05,15.70
2014,08,22,03,06,15.70
2014,08,22,03,07,15.70
2014,08,22,03,08,15.70
2014,08,22,03,09,15.70
2014,08,22,03,10,15.70
2014,08,22,03,11,15.70
2014,08,22,03,12,15.70
2014,08,22,03,13,15.70
2014,08,22,03,14,15.70
2014,08,22,03,15,15.70
2014,08,22,03,16,15.60
2014,08,22,03,17,15.60
2014,08,22,03,18,15.60
2014,08,22,03,19,15.60
2014,08,22,03,20,15.60
2014,08,22,03,21,15.60
2014,08,22,03,22,15.60
2014,08,22,03,23,15.50
2014,08,22,03,24,15.50
2014,08,22,03,25,15.50
2014,08,22,03,26,15.50
2014,08,22,03,27,15.40
2014,08,22,03,28,15.40
2014,08,22,03,29,15.40
2014,08,22,03,30,15.40
2014,08,22,03,31,15.40
2014,08,22,03,32,15.30
2014,08,22,03,33,15.30
2014,08,22,03,34,15.30
2014,08,22,03,35,15.30
2014,08,22,03,36,15.30
2014,08,22,03,37,15.30
2014,08,22,03,38,15.30
2014,08,22,03,39,15.20
2014,08,22,03,40,15.20
2014,08,22,03,41,15.20
2014,08,22,03,42,15.20
2014,08,22,03,43,15.20
2014,08,22,03,44,15.20
2014,08,22,03,45,15.20
2014,08,22,03,46,15.20
2014,08,22,03,47,15.20
2014,08,22,03,48,15.20
2014,08,22,03,49,15.30
2014,08,22,03,50,15.20
2014,08,22,03,51,15.20
2014,08,22,03,52,15.20
2014,08,22,03,53,15.20
2014,08,22,03,54,15.20
2014,08,22,03,55,15.20
2014,08,22,03,56,15.20
2014,08,22,03,57,15.20
2014,08,22,03,58,15.20
2014,08,22,03,59,15.20
2014,08,22,04,00,15.20
2014,08,22,04,01,15.20
2014,08,22,04,02,15.10
2014,08,22,04,03,15.10
2014,08,22,04,04,15.10
2014,08,22,04,05,15.10
2014,08,22,04,06,15.10
2014,08,22,04,07,15.10
2014,08,22,04,08,15.10
2014,08,22,04,09,15.10
2014,08,22,04,10,15.00
2014,08,22,04,11,15.00
2014,08,22,04,12,15.00
2014,08,22,04,13,15.00
2014,08,22,04,14,15.00
2014,08,22,04,15,15.00
2014,08,22,04,16,14.90
2014,08,22,04,17,14.90
2014,08,22,04,18,14.90
2014,08,22,04,19,14.90
2014,08,22,04,20,14.90
2014,08,22,04,21,14.90
2014,08,22,04,22,14.80
2014,08,22,04,23,14.80
2014,08,22,04,24,14.80
2014,08,22,04,25,14.80
2014,08,22,04,26,14.80
2014,08,22,04,27,14.80
2014,08,22,04,28,14.80
2014,08,22,04,29,14.80
2014,08,22,04,30,14.80
2014,08,22,04,31,14.80
2014,08,22,04,32,14.80
2014,08,22,04,33,14.80
2014,08,22,04,34,14.80
2014,08,22,04,35,14.80
2014,08,22,04,36,14.80
2014,08,22,04,37,14.90
2014,08,22,04,38,14.90
2014,08,22,04,39,14.90
2014,08,22,04,40,14.90
2014,08,22,04,41,14.90
2014,08,22,04,42,14.90
2014,08,22,04,43,14.90
2014,08,22,04,44,14.90
2014,08,22,04,45,14.90
2014,08,22,04,46,15.00
2014,08,22,04,47,15.00
2014,08,22,04,48,15.00
2014,08,22,04,49,15.00
2014,08,22,04,50,15.00
2014,08,22,11,06,18.70
2014,08,22,11,07,18.70
2014,08,22,11,08,18.70
2014,08,22,11,09,18.70
2014,08,22,11,10,18.70
2014,08,22,11,11,18.80
2014,08,22,11,12,18.80
2014,08,22,11,13,18.90
2014,08,22,11,14,19.00
2014,08,22,11,15,19.00
2014,08,22,11,16,19.10
2014,08,22,11,17,19.20
2014,08,22,11,18,19.20
2014,08,22,11,19,19.20
2014,08,22,11,20,19.20
2014,08,22,11,21,19.10
2014,08,22,11,22,19.00
2014,08,22,11,23,19.00
2014,08,22,11,24,18.90
2014,08,22,11,25,18.90
2014,08,22,11,26,18.90
2014,08,22,11,27,18.90
2014,08,22,11,28,18.90
2014,08,22,11,29,18.90
2014,08,22,11,30,18.90
2014,08,22,11,31,18.90
2014,08,22,11,32,18.90
2014,08,22,11,33,19.00
2014,08,22,11,34,19.00
2014,08,22,11,35,19.10
2014,08,22,11,36,19.20
2014,08,22,11,37,19.20
2014,08,22,11,38,19.20
2014,08,22,11,39,19.20
2014,08,22,11,40,19.20
2014,08,22,11,41,19.20
2014,08,22,11,42,19.30
2014,08,22,11,43,19.30
2014,08,22,11,44,19.40
2014,08,22,11,45,19.50
2014,08,22,11,46,19.60
2014,08,22,11,47,19.60
2014,08,22,11,48,19.60
2014,08,22,11,49,19.70
2014,08,22,11,50,19.70
2014,08,22,11,51,19.70
2014,08,22,11,52,19.70
2014,08,22,11,53,19.70
2014,08,22,11,54,19.70
2014,08,22,11,55,19.60
2014,08,22,11,56,19.50
2014,08,22,11,57,19.40
2014,08,22,11,58,19.40
2014,08,22,11,59,19.30
2014,08,22,12,00,19.30
2014,08,22,12,01,19.30
2014,08,22,12,02,19.30
2014,08,22,12,03,19.40
2014,08,22,12,04,19.30
2014,08,22,12,05,19.30
2014,08,22,12,06,19.40
2014,08,22,12,07,19.40
2014,08,22,12,08,19.50
2014,08,22,12,09,19.60
2014,08,22,12,10,19.70
2014,08,22,12,11,19.70
2014,08,22,12,12,19.80
2014,08,22,12,13,19.90
2014,08,22,12,14,20.00
2014,08,22,12,15,20.10
2014,08,22,12,16,20.10
2014,08,22,12,17,20.20
2014,08,22,12,18,20.20
2014,08,22,12,19,20.20
2014,08,22,12,20,20.30
2014,08,22,12,21,20.30
2014,08,22,12,22,20.40
2014,08,22,12,23,20.40
2014,08,22,12,24,20.40
2014,08,22,12,25,20.40
2014,08,22,12,26,20.40
2014,08,22,12,27,20.50
2014,08,22,12,28,20.50
2014,08,22,12,29,20.60
2014,08,22,12,30,20.60
2014,08,22,12,31,20.70
2014,08,22,12,32,20.80
2014,08,22,12,33,20.90
2014,08,22,12,34,21.00
2014,08,22,12,35,21.10
2014,08,22,12,36,21.20
2014,08,22,12,37,21.30
2014,08,22,12,38,21.30
2014,08,22,12,39,21.30
2014,08,22,12,40,21.30
2014,08,22,12,41,21.40
2014,08,22,12,42,21.40
2014,08,22,12,43,21.50
2014,08,22,12,44,21.60
2014,08,22,12,45,21.60
2014,08,22,12,46,21.70
2014,08,22,12,47,21.70
2014,08,22,12,48,21.80
2014,08,22,12,49,21.90
2014,08,22,12,50,21.90
2014,08,22,12,51,21.90
2014,08,22,12,52,21.90
2014,08,22,12,53,21.90
2014,08,22,12,54,21.90
2014,08,22,12,55,21.90
2014,08,22,12,56,21.90
2014,08,22,12,57,21.90
2014,08,22,12,58,21.90
2014,08,22,12,59,21.90
2014,08,22,13,00,21.90
2014,08,22,13,01,21.90
2014,08,22,13,02,21.90
2014,08,22,13,03,22.00
2014,08,22,13,04,22.00
2014,08,22,13,05,22.00
2014,08,22,13,06,22.10
2014,08,22,13,07,22.10
2014,08,22,13,08,22.10
2014,08,22,13,09,22.10
2014,08,22,13,10,22.10
2014,08,22,13,11,22.10
2014,08,22,13,12,22.20
2014,08,22,13,13,22.20
2014,08,22,13,14,22.20
2014,08,22,13,15,22.30
2014,08,22,13,16,22.30
2014,08,22,13,17,22.30
2014,08,22,13,18,22.30
2014,08,22,13,19,22.30
2014,08,22,13,20,22.30
2014,08,22,13,21,22.40
2014,08,22,13,22,22.50
2014,08,22,13,23,22.60
2014,08,22,13,24,22.60
2014,08,22,13,25,22.60
2014,08,22,13,26,22.60
2014,08,22,13,27,22.60
2014,08,22,13,28,22.60
2014,08,22,13,29,22.70
2014,08,22,13,30,22.70
2014,08,22,13,31,22.80
2014,08,22,13,32,22.90
2014,08,22,13,33,23.00
2014,08,22,13,34,23.00
2014,08,22,13,35,23.00
2014,08,22,13,36,23.10
2014,08,22,13,37,23.20
2014,08,22,13,38,23.20
2014,08,22,13,39,23.20
2014,08,22,13,40,23.20
2014,08,22,13,41,23.10
2014,08,22,13,42,23.20
2014,08,22,13,43,23.20
2014,08,22,13,44,23.20
2014,08,22,13,45,23.20
2014,08,22,13,46,23.30
2014,08,22,13,47,23.30
2014,08,22,13,48,23.40
2014,08,22,13,49,23.40
2014,08,22,13,50,23.50
2014,08,22,13,51,23.60
2014,08,22,13,52,23.70
2014,08,22,13,53,23.80
2014,08,22,13,54,23.90
2014,08,22,13,55,24.00
2014,08,22,13,56,24.00
2014,08,22,13,57,23.90
2014,08,22,13,58,23.80
2014,08,22,13,59,23.80
2014,08,22,14,00,23.80
2014,08,22,14,01,23.80
2014,08,22,14,02,23.80
2014,08,22,14,03,23.70
2014,08,22,14,04,23.70
2014,08,22,14,05,23.70
2014,08,22,14,06,23.70
2014,08,22,14,07,23.70
2014,08,22,14,08,23.70
2014,08,22,14,09,23.70
2014,08,22,14,10,23.70
2014,08,22,14,11,23.70
2014,08,22,14,12,23.70
2014,08,22,14,13,23.80
2014,08,22,14,14,23.80
2014,08,22,14,15,23.80
2014,08,22,14,16,23.80
2014,08,22,14,17,23.80
2014,08,22,14,18,23.90
2014,08,22,14,19,23.90
2014,08,22,14,20,23.90
2014,08,22,14,21,23.90
2014,08,22,14,22,23.90
2014,08,22,14,23,24.00
2014,08,22,14,24,24.00
2014,08,22,14,25,24.00
2014,08,22,14,26,24.10
2014,08,22,14,27,24.10
2014,08,22,14,28,24.20
2014,08,22,14,29,24.20
2014,08,22,14,30,24.20
2014,08,22,14,31,24.20
2014,08,22,14,32,24.20
2014,08,22,14,33,24.20
2014,08,22,14,34,24.20
2014,08,22,14,35,24.30
2014,08,22,14,36,24.30
2014,08,22,14,37,24.40
2014,08,22,14,38,24.50
2014,08,22,14,39,24.60
2014,08,22,14,40,24.70
2014,08,22,14,41,24.70
2014,08,22,14,42,24.80
2014,08,22,14,43,24.90
2014,08,22,14,44,25.00
2014,08,22,14,45,25.00
2014,08,22,14,46,24.90
2014,08,22,14,47,24.90
2014,08,22,14,48,24.90
2014,08,22,14,49,24.90
2014,08,22,14,50,24.90
2014,08,22,14,51,25.00
2014,08,22,14,52,25.00
2014,08,22,14,53,25.00
2014,08,22,14,54,25.00
2014,08,22,14,55,25.00
2014,08,22,14,56,24.90
2014,08,22,14,57,24.80
2014,08,22,14,58,24.70
2014,08,22,14,59,24.70
2014,08,22,15,00,24.70
2014,08,22,15,01,24.70
2014,08,22,15,02,24.80
2014,08,22,15,03,24.90
2014,08,22,15,04,24.90
2014,08,22,15,05,25.00
2014,08,22,15,06,25.00
2014,08,22,15,07,25.10
2014,08,22,15,08,25.20
2014,08,22,15,09,25.20
2014,08,22,15,10,25.20
2014,08,22,15,11,25.30
2014,08,22,15,12,25.30
2014,08,22,15,13,25.30
2014,08,22,15,14,25.30
2014,08,22,15,15,25.40
2014,08,22,15,16,25.40
2014,08,22,15,17,25.50
2014,08,22,15,18,25.60
2014,08,22,15,19,25.60
2014,08,22,15,20,25.60
2014,08,22,15,21,25.70
2014,08,22,15,22,25.70
2014,08,22,15,23,25.80
2014,08,22,15,24,25.90
2014,08,22,15,25,26.00
2014,08,22,15,26,26.00
2014,08,22,15,27,26.10
2014,08,22,15,28,26.20
2014,08,22,15,29,26.20
2014,08,22,15,30,26.20
2014,08,22,15,31,26.20
2014,08,22,15,32,26.20
2014,08,22,15,33,26.20
2014,08,22,15,34,26.20
2014,08,22,15,35,26.20
2014,08,22,15,36,26.20
2014,08,22,15,37,26.30
2014,08,22,15,38,26.30
2014,08,22,15,39,26.20
2014,08,22,15,40,26.10
2014,08,22,15,41,26.00
2014,08,22,15,42,25.90
2014,08,22,15,43,25.80
2014,08,22,15,44,25.80
2014,08,22,15,45,25.80
2014,08,22,15,46,25.70
2014,08,22,15,47,25.70
2014,08,22,15,48,25.70
2014,08,22,15,49,25.70
2014,08,22,15,50,25.80
2014,08,22,15,51,25.80
2014,08,22,15,52,25.80
2014,08,22,15,53,25.70
2014,08,22,15,54,25.70
2014,08,22,15,55,25.70
2014,08,22,15,56,25.70
2014,08,22,15,57,25.80
2014,08,22,15,58,25.80
2014,08,22,15,59,25.80
2014,08,22,16,00,25.80
2014,08,22,16,01,25.90
2014,08,22,16,02,25.90
2014,08,22,16,03,26.00
2014,08,22,16,04,26.00
2014,08,22,16,05,26.00
2014,08,22,16,06,26.00
2014,08,22,16,07,26.00
2014,08,22,16,08,26.00
2014,08,22,16,09,26.00
2014,08,22,16,10,25.90
2014,08,22,16,11,25.90
2014,08,22,16,12,25.80
2014,08,22,16,13,25.80
2014,08,22,16,14,25.80
2014,08,22,16,15,25.80
2014,08,22,16,16,25.80
2014,08,22,16,17,25.80
2014,08,22,16,18,25.90
2014,08,22,16,19,25.90
2014,08,22,16,20,26.00
2014,08,22,16,21,26.00
2014,08,22,16,22,26.10
2014,08,22,16,23,26.10
2014,08,22,16,24,26.20
2014,08,22,16,25,26.20
2014,08,22,16,26,26.30
2014,08,22,16,27,26.30
2014,08,22,16,28,26.30
2014,08,22,16,29,26.40
2014,08,22,16,30,26.30
2014,08,22,16,31,26.30
2014,08,22,16,32,26.30
2014,08,22,16,33,26.30
2014,08,22,16,34,26.30
2014,08,22,16,35,26.30
2014,08,22,16,36,26.30
2014,08,22,16,37,26.30
2014,08,22,16,38,26.30
2014,08,22,16,39,26.20
2014,08,22,16,40,26.20
2014,08,22,16,41,26.10
2014,08,22,16,42,26.10
2014,08,22,16,43,26.10
2014,08,22,16,44,26.10
2014,08,22,16,45,26.10
2014,08,22,16,46,26.10
2014,08,22,16,47,26.10
2014,08,22,16,48,26.10
2014,08,22,16,49,26.10
2014,08,22,16,50,26.10
2014,08,22,16,51,26.20
2014,08,22,16,52,26.20
2014,08,22,16,53,26.20
2014,08,22,16,54,26.20
2014,08,22,16,55,26.20
2014,08,22,16,56,26.30
2014,08,22,16,57,26.30
2014,08,22,16,58,26.30
2014,08,22,16,59,26.40
2014,08,22,17,00,26.40
2014,08,22,17,01,26.50
2014,08,22,17,02,26.50
2014,08,22,17,03,26.50
2014,08,22,17,04,26.50
2014,08,22,17,05,26.50
2014,08,22,17,06,26.50
2014,08,22,17,07,26.50
2014,08,22,17,08,26.50
2014,08,22,17,09,26.50
2014,08,22,17,10,26.60
2014,08,22,17,11,26.60
2014,08,22,17,12,26.60
2014,08,22,17,13,26.70
2014,08,22,17,14,26.70
2014,08,22,17,15,26.70
2014,08,22,17,16,26.70
2014,08,22,17,17,26.70
2014,08,22,17,18,26.70
2014,08,22,17,19,26.80
2014,08,22,17,20,26.80
2014,08,22,17,21,26.80
2014,08,22,17,22,26.80
2014,08,22,17,23,26.90
2014,08,22,17,24,26.90
2014,08,22,17,25,26.90
2014,08,22,17,26,26.90
2014,08,22,17,27,26.90
2014,08,22,17,28,26.80
2014,08,22,17,29,26.80
2014,08,22,17,30,26.80
2014,08,22,17,31,26.80
2014,08,22,17,32,26.80
2014,08,22,17,33,26.80
2014,08,22,17,34,26.80
2014,08,22,17,35,26.80
2014,08,22,17,36,26.80
2014,08,22,17,37,26.70
2014,08,22,17,38,26.70
2014,08,22,17,39,26.60
2014,08,22,17,40,26.60
2014,08,22,17,41,26.50
2014,08,22,17,42,26.40
2014,08,22,17,43,26.40
2014,08,22,17,44,26.30
2014,08,22,17,45,26.30
2014,08,22,17,46,26.30
2014,08,22,17,47,26.20
2014,08,22,17,48,26.20
2014,08,22,17,49,26.20
2014,08,22,17,50,26.20
2014,08,22,17,51,26.10
2014,08,22,17,52,26.10
2014,08,22,17,53,26.10
2014,08,22,17,54,26.10
2014,08,22,17,55,26.00
2014,08,22,17,56,26.00
2014,08,22,17,57,26.00
2014,08,22,17,58,25.90
2014,08,22,17,59,25.90
2014,08,22,18,00,25.90
2014,08,22,18,01,25.90
2014,08,22,18,02,25.80
2014,08,22,18,03,25.80
2014,08,22,18,04,25.80
2014,08,22,18,05,25.80
2014,08,22,18,06,25.80
2014,08,22,18,07,25.80
2014,08,22,18,08,25.80
2014,08,22,18,09,25.80
2014,08,22,18,10,25.80
2014,08,22,18,11,25.80
2014,08,22,18,12,25.80
2014,08,22,18,13,25.70
2014,08,22,18,14,25.70
2014,08,22,18,15,25.70
2014,08,22,18,16,25.60
2014,08,22,18,17,25.60
2014,08,22,18,18,25.60
2014,08,22,18,19,25.50
2014,08,22,18,20,25.50
2014,08,22,18,21,25.50
2014,08,22,18,22,25.50
2014,08,22,18,23,25.40
2014,08,22,18,24,25.30
2014,08,22,18,25,25.30
2014,08,22,18,26,25.30
2014,08,22,18,27,25.20
2014,08,22,18,28,25.20
2014,08,22,18,29,25.20
2014,08,22,18,30,25.10
2014,08,22,18,31,25.10
2014,08,22,18,32,25.00
2014,08,22,18,33,24.90
2014,08,22,18,34,24.90
2014,08,22,18,35,24.80
2014,08,22,18,36,24.80
2014,08,22,18,37,24.70
2014,08,22,18,38,24.60
2014,08,22,18,39,24.60
2014,08,22,18,40,24.50
2014,08,22,18,41,24.50
2014,08,22,18,42,24.40
2014,08,22,18,43,24.30
2014,08,22,18,44,24.30
2014,08,22,18,45,24.30
2014,08,22,18,46,24.30
2014,08,22,18,47,24.20
2014,08,22,18,48,24.20
2014,08,22,18,49,24.10
2014,08,22,18,50,24.10
2014,08,22,18,51,24.10
2014,08,22,18,52,24.00
2014,08,22,18,53,24.00
2014,08,22,18,54,23.90
2014,08,22,18,55,23.90
2014,08,22,18,56,23.80
2014,08,22,18,57,23.80
2014,08,22,18,58,23.70
2014,08,22,18,59,23.70
2014,08,22,19,00,23.70
2014,08,22,19,01,23.70
2014,08,22,19,02,23.60
2014,08,22,19,03,23.60
2014,08,22,19,04,23.50
2014,08,22,19,05,23.40
2014,08,22,19,06,23.40
2014,08,22,19,07,23.30
2014,08,22,19,08,23.30
2014,08,22,19,09,23.20
2014,08,22,19,10,23.10
2014,08,22,19,11,23.00
2014,08,22,19,12,22.90
2014,08,22,19,13,22.70
2014,08,22,19,14,22.70
2014,08,22,19,15,22.60
2014,08,22,19,16,22.50
2014,08,22,19,17,22.40
2014,08,22,19,18,22.30
2014,08,22,19,19,22.20
2014,08,22,19,20,22.20
2014,08,22,19,21,22.10
2014,08,22,19,22,22.00
2014,08,22,19,23,21.90
2014,08,22,19,24,21.80
2014,08,22,19,25,21.80
2014,08,22,19,26,21.70
2014,08,22,19,27,21.70
2014,08,22,19,28,21.60
2014,08,22,19,29,21.50
2014,08,22,19,30,21.50
2014,08,22,19,31,21.40
2014,08,22,19,32,21.30
2014,08,22,19,33,21.30
2014,08,22,19,34,21.20
2014,08,22,19,35,21.10
2014,08,22,19,36,21.10
2014,08,22,19,37,21.00
2014,08,22,19,38,20.90
2014,08,22,19,39,20.90
2014,08,22,19,40,20.80
2014,08,22,19,41,20.80
2014,08,22,19,42,20.70
2014,08,22,19,43,20.70
2014,08,22,19,44,20.60
2014,08,22,19,45,20.60
2014,08,22,19,46,20.50
2014,08,22,19,47,20.50
2014,08,22,19,48,20.40
2014,08,22,19,49,20.40
2014,08,22,19,50,20.40
2014,08,22,19,51,20.30
2014,08,22,19,52,20.30
2014,08,22,19,53,20.30
2014,08,22,19,54,20.30
2014,08,22,19,55,20.20
2014,08,22,19,56,20.20
2014,08,22,19,57,20.20
2014,08,22,19,58,20.10
2014,08,22,19,59,20.10
2014,08,22,20,00,20.10
2014,08,22,20,01,20.00
2014,08,22,20,02,20.00
2014,08,22,20,03,19.90
2014,08,22,20,04,19.90
2014,08,22,20,05,19.90
2014,08,22,20,06,19.80
2014,08,22,20,07,19.80
2014,08,22,20,08,19.80
2014,08,22,20,09,19.70
2014,08,22,20,10,19.70
2014,08,22,20,11,19.70
2014,08,22,20,12,19.60
2014,08,22,20,13,19.60
2014,08,22,20,14,19.60
2014,08,22,20,15,19.50
2014,08,22,20,16,19.50
2014,08,22,20,17,19.50
2014,08,22,20,18,19.50
2014,08,22,20,19,19.40
2014,08,22,20,20,19.40
2014,08,22,20,21,19.40
2014,08,22,20,22,19.40
2014,08,22,20,23,19.40
2014,08,22,20,24,19.40
2014,08,22,20,25,19.30
2014,08,22,20,26,19.30
2014,08,22,20,27,19.30
2014,08,22,20,28,19.30
2014,08,22,20,29,19.30
2014,08,22,20,30,19.30
2014,08,22,20,31,19.30
2014,08,22,20,32,19.30
2014,08,22,20,33,19.30
2014,08,22,20,34,19.30
2014,08,22,20,35,19.20
2014,08,22,20,36,19.20
2014,08,22,20,37,19.20
2014,08,22,20,38,19.20
2014,08,22,20,39,19.20
2014,08,22,20,40,19.20
2014,08,22,20,41,19.20
2014,08,22,20,42,19.20
2014,08,22,20,43,19.10
2014,08,22,20,44,19.10
2014,08,22,20,45,19.10
2014,08,22,20,46,19.10
2014,08,22,20,47,19.10
2014,08,22,20,48,19.10
2014,08,22,20,49,19.10
2014,08,22,20,50,19.10
2014,08,22,20,51,19.10
2014,08,22,20,52,19.10
2014,08,22,20,53,19.10
2014,08,22,20,54,19.10
2014,08,22,20,55,19.10
2014,08,22,20,56,19.10
2014,08,22,20,57,19.10
2014,08,22,20,58,19.00
2014,08,22,20,59,19.00
2014,08,22,21,00,19.00
2014,08,22,21,01,19.10
2014,08,22,21,02,19.00
2014,08,22,21,03,19.00
2014,08,22,21,04,19.00
2014,08,22,21,05,19.00
2014,08,22,21,06,19.00
2014,08,22,21,07,19.10
2014,08,22,21,08,19.10
2014,08,22,21,09,19.10
2014,08,22,21,10,19.10
2014,08,22,21,11,19.10
2014,08,22,21,12,19.10
2014,08,22,21,13,19.10
2014,08,22,21,14,19.10
2014,08,22,21,15,19.10
2014,08,22,21,16,19.10
2014,08,22,21,17,19.10
2014,08,22,21,18,19.10
2014,08,22,21,19,19.20
2014,08,22,21,20,19.20
2014,08,22,21,21,19.30
2014,08,22,21,22,19.30
2014,08,22,21,23,19.30
2014,08,22,21,24,19.30
2014,08,22,21,25,19.30
2014,08,22,21,26,19.30
2014,08,22,21,27,19.30
2014,08,22,21,28,19.30
2014,08,22,21,29,19.30
2014,08,22,21,30,19.30
2014,08,22,21,31,19.30
2014,08,22,21,32,19.40
2014,08,22,21,33,19.40
2014,08,22,21,34,19.40
2014,08,22,21,35,19.40
2014,08,22,21,36,19.50
2014,08,22,21,37,19.50
2014,08,22,21,38,19.50
2014,08,22,21,39,19.50
2014,08,22,21,40,19.50
2014,08,22,21,41,19.60
2014,08,22,21,42,19.50
2014,08,22,21,43,19.50
2014,08,22,21,44,19.50
2014,08,22,21,45,19.50
2014,08,22,21,46,19.50
2014,08,22,21,47,19.50
2014,08,22,21,48,19.50
2014,08,22,21,49,19.50
2014,08,22,21,50,19.50
2014,08,22,21,51,19.50
2014,08,22,21,52,19.60
2014,08,22,21,53,19.60
2014,08,22,21,54,19.60
2014,08,22,21,55,19.60
2014,08,22,21,56,19.70
2014,08,22,21,57,19.80
2014,08,22,21,58,19.80
2014,08,22,21,59,19.90
2014,08,22,22,00,19.90
2014,08,22,22,01,20.00
2014,08,22,22,02,20.10
2014,08,22,22,03,20.10
2014,08,22,22,04,20.20
2014,08,22,22,05,20.20
2014,08,22,22,06,20.30
2014,08,22,22,07,20.40
2014,08,22,22,08,20.50
2014,08,22,22,09,20.60
2014,08,22,22,10,20.70
2014,08,22,22,11,20.80
2014,08,22,22,12,20.90
2014,08,22,22,13,20.90
2014,08,22,22,14,21.00
2014,08,22,22,15,21.10
2014,08,22,22,16,21.10
2014,08,22,22,17,21.20
2014,08,22,22,18,21.20
2014,08,22,22,19,21.30
2014,08,22,22,20,21.30
2014,08,22,22,21,21.30
2014,08,22,22,22,21.40
2014,08,22,22,23,21.40
2014,08,22,22,24,21.40
2014,08,22,22,25,21.50
2014,08,22,22,26,21.50
2014,08,22,22,27,21.50
2014,08,22,22,28,21.60
2014,08,22,22,29,21.60
2014,08,22,22,30,21.60
2014,08,22,22,31,21.70
2014,08,22,22,32,21.70
2014,08,22,22,33,21.70
2014,08,22,22,34,21.70
2014,08,22,22,35,21.70
2014,08,22,22,36,21.70
2014,08,22,22,37,21.70
2014,08,22,22,38,21.70
2014,08,22,22,39,21.70
2014,08,22,22,40,21.70
2014,08,22,22,41,21.70
2014,08,22,22,42,21.70
2014,08,22,22,43,21.70
2014,08,22,22,44,21.70
2014,08,22,22,45,21.70
2014,08,22,22,46,21.60
2014,08,22,22,47,21.60
2014,08,22,22,48,21.60
2014,08,22,22,49,21.60
2014,08,22,22,50,21.60
2014,08,22,22,51,21.50
2014,08,22,22,52,21.50
2014,08,22,22,53,21.40
2014,08,22,22,54,21.40
2014,08,22,22,55,21.30
2014,08,22,22,56,21.30
2014,08,22,22,57,21.30
2014,08,22,22,58,21.30
2014,08,22,22,59,21.20
2014,08,22,23,00,21.20
2014,08,22,23,01,21.20
2014,08,22,23,02,21.20
2014,08,22,23,03,21.10
2014,08,22,23,04,21.10
2014,08,22,23,05,21.10
2014,08,22,23,06,21.10
2014,08,22,23,07,21.00
2014,08,22,23,08,21.00
2014,08,22,23,09,21.00
2014,08,22,23,10,20.90
2014,08,22,23,11,20.90
2014,08,22,23,12,20.90
2014,08,22,23,13,20.80
2014,08,22,23,14,20.80
2014,08,22,23,15,20.70
2014,08,22,23,16,20.70
2014,08,22,23,17,20.70
2014,08,22,23,18,20.60
2014,08,22,23,19,20.60
2014,08,22,23,20,20.60
2014,08,22,23,21,20.50
2014,08,22,23,22,20.50
2014,08,22,23,23,20.50
2014,08,22,23,24,20.40
2014,08,22,23,25,20.40
2014,08,22,23,26,20.40
2014,08,22,23,27,20.30
2014,08,22,23,28,20.30
2014,08,22,23,29,20.30
2014,08,22,23,30,20.30
2014,08,22,23,31,20.30
2014,08,22,23,32,20.30
2014,08,22,23,33,20.30
2014,08,22,23,34,20.30